User: anonymous   Login
Location: Caltech
(34.1382°N, 118.1253°W)
Time: 05:53:17
(UTC-07:00)
Language:

Cosmos 1025 Rocket - Orbit

View from above orbital plane
View from above orbital plane
View from above satellite
View from above satellite

Ground track
Ground track

The orbit data is extracted from the following two-line orbital elements,

1 10974U 78067B   17269.01645405  .00000100  00000-0  83047-5 0  9997
2 10974  82.4804  73.7096 0017738  14.3192 345.8523 14.87247304122541
Epoch (UTC): 26 September 2017 00:23:41
Eccentricity: 0.0017738
inclination: 82.4804°
perigee height: 594 km
apogee height: 619 km
right ascension of ascending node: 73.7096°
argument of perigee: 14.3192°
revolutions per day: 14.87247304
mean anomaly at epoch: 345.8523°
orbit number at epoch: 12254

The dashed part of the orbit path shows where the satellite is in the earth's shadow,  

DLR